Location: Unspecified
(35.7250°N, 0.0000°E)
Time: 21:10:30
(UTC+00:00)

Vanguard 2 Rocket - Visible Passes

Search period start: 20 June 2019 00:00
Search period end: 30 June 2019 00:00
Orbit: 554 x 3326 km, 32.9° (Epoch: 20 June)

Date Brightness Start Highest point End Pass type
(mag) Time Alt. Az. Time Alt. Az. Time Alt. Az.
20 Jun 9.2 01:39:34 10° W 01:54:07 75° SSW 02:14:31 10° ESE visible
20 Jun 9.7 03:55:07 10° W 04:11:56 49° SSW 04:30:28 10° SE visible
20 Jun 8.4 20:15:50 10° SSW 20:22:11 33° SE 20:32:24 10° E visible
20 Jun 8.4 22:26:39 10° WSW 22:35:52 72° SSE 22:52:17 10° E visible
21 Jun 9.0 00:39:41 10° W 00:52:21 79° S 01:12:10 10° ESE visible
21 Jun 9.5 02:54:15 10° W 03:10:05 58° SSW 03:29:45 10° SE visible
21 Jun 8.1 21:27:50 10° SW 21:35:35 60° SSE 21:49:31 10° E visible
21 Jun 8.7 23:40:09 10° W 23:50:59 80° S 00:09:26 10° E visible
22 Jun 9.2 01:53:56 10° W 02:08:14 66° SSW 02:28:17 10° ESE visible
22 Jun 9.9 04:09:56 10° W 04:25:35 38° SW 04:42:56 10° SSE visible
22 Jun 8.0 20:29:21 10° SW 20:35:49 45° SSE 20:46:58 10° E visible
22 Jun 8.3 22:40:54 10° WSW 22:50:05 78° S 23:06:34 10° E visible
23 Jun 9.0 00:54:02 10° W 01:06:35 73° SSW 01:26:10 10° ESE visible
23 Jun 9.6 03:08:49 10° W 03:23:56 47° SSW 03:42:42 10° SE visible
23 Jun 8.0 21:41:57 10° WSW 21:49:40 70° SSE 22:03:49 10° E visible
23 Jun 8.7 23:54:30 10° W 00:05:17 77° S 00:23:36 10° ESE visible
24 Jun 9.3 02:08:22 10° W 02:22:16 56° SSW 02:41:37 10° SE visible
24 Jun 7.8 20:43:16 10° SW 20:49:44 58° SSE 21:01:21 10° E visible
24 Jun 8.3 22:55:14 10° W 23:04:23 79° S 23:20:49 10° E visible
25 Jun 9.0 01:08:26 10° W 01:20:46 63° SSW 01:39:52 10° SE visible
25 Jun 9.8 03:23:44 10° W 03:37:45 36° SSW 03:54:58 10° SSE visible
25 Jun 7.7 19:44:53 10° SW 19:50:17 42° SSE 19:59:15 10° E visible
25 Jun 8.0 21:56:13 10° WSW 22:03:55 76° S 22:18:06 10° E visible
26 Jun 8.6 00:08:52 10° W 00:19:32 70° SSW 00:37:34 10° ESE visible
26 Jun 9.4 02:23:01 10° W 02:36:15 44° SSW 02:54:25 10° SE visible
26 Jun 7.6 20:57:24 10° WSW 21:03:52 69° SSE 21:15:40 10° E visible
26 Jun 8.3 23:09:36 10° W 23:18:41 75° S 23:34:58 10° ESE visible
27 Jun 9.1 01:22:55 10° W 01:34:53 52° SSW 01:53:06 10° SE visible
27 Jun 10.0 03:39:21 10° W 03:51:35 26° SW 04:06:16 10° S visible
27 Jun 7.4 19:58:49 10° WSW 20:04:16 55° SSE 20:13:40 10° E visible
27 Jun 8.0 22:10:34 10° W 22:18:14 77° S 22:32:21 10° E visible
28 Jun 8.7 00:23:17 10° W 00:33:45 60° SSW 00:51:11 10° SE visible
28 Jun 9.6 02:38:03 10° W 02:50:14 33° SSW 03:06:29 10° SSE visible
28 Jun 7.6 21:11:42 10° W 21:18:10 74° S 21:29:58 10° E visible
28 Jun 8.3 23:23:59 10° W 23:32:58 66° SSW 23:48:54 10° ESE visible
29 Jun 9.2 01:37:39 10° W 01:48:59 40° SSW 02:05:45 10° SSE visible
29 Jun 10.2 03:56:34 10° WSW 04:05:32 17° SW 04:15:46 10° S visible
29 Jun 7.3 20:12:59 10° WSW 20:18:27 66° SSE 20:28:00 10° E visible
29 Jun 8.0 22:24:56 10° W 22:32:33 71° S 22:42:49 19° ESE visible
